Regional Weather Roundup
Issued by NWS Glasgow, MT

Home | Current Version | Previous Version | Text Only | Print | Product List | Glossary On
Versions: 1 2 3 4 5 6 7 8 9 10 11 12 13 14 15 16 17 18 19 20 21 22 23 24 25 26 27 28 29 30 31 32 33 34 35 36 37 38 39 40 41 42 43 44 45 46 47 48 49 50
000
ASUS45 KGGW 162315
RWRGGW
HOURLY WEATHER ROUNDUP FOR NORTHEAST MONTANA
NATIONAL WEATHER SERVICE GLASGOW MONTANA
500 PM MDT TUE SEP 16 2014

NOTE: "FAIR" INDICATES FEW OR NO CLOUDS BELOW 12,000 FEET WITH NO
SIGNIFICANT WEATHER AND/OR OBSTRUCTIONS TO VISISBILITY.

NORTHEAST MONTANA


CITY           SKY/WX    TMP DP  RH WIND       PRES   REMARKS
GLASGOW        SUNNY     76  41  28 S5        29.90F
PLENTYWOOD       N/A     76  34  21 SW3         N/A
WOLF POINT     SUNNY     79  39  23 CALM      29.90F
JORDAN           N/A     79  43  27 E3        29.91F
WINNETT          N/A     75  54  47 E3          N/A
SIDNEY         SUNNY     75  39  27 E6        29.93F
GLENDIVE       NOT AVBL

FORT PECK REPORTS


CITY           SKY/WX    TMP DP  RH WIND       PRES   REMARKS
FORT PECK        N/A     78  43  28 S2          N/A
THE PINES        N/A     80  43  26 NE3         N/A

SOUTHEAST MONTANA


CITY           SKY/WX    TMP DP  RH WIND       PRES   REMARKS
BILLINGS       PTSUNNY   83  34  17 S6        29.95F
MILES CITY     MOSUNNY   80  44  27 CALM      29.92F
BAKER          SUNNY     77  46  33 NW8       29.95S
LIVINGSTON     MOSUNNY   77  40  26 SW12      30.01F

CENTRAL MONTANA


CITY           SKY/WX    TMP DP  RH WIND       PRES   REMARKS
HAVRE          SUNNY     80  36  20 SW5       29.88F
LEWISTOWN      CLOUDY    76  44  32 CALM      29.98S
GREAT FALLS    CLOUDY    77  42  28 SW7       29.92F
CUT BANK       SUNNY     83  34  17 W16       29.91S
HELENA         PTSUNNY   78  42  27 NE5       29.96F
BUTTE          PTSUNNY   74  39  28 VRB5      30.08F
BOZEMAN        CLOUDY    74  44  34 S15       30.02F

WESTERN MONTANA


CITY           SKY/WX    TMP DP  RH WIND       PRES   REMARKS
MISSOULA       CLOUDY    77  40  26 CALM      29.92F
KALISPELL      NOT AVBL

NORTH DAKOTA


CITY           SKY/WX    TMP DP  RH WIND       PRES   REMARKS
WILLISTON      SUNNY     73  36  25 S8        29.92F
DICKINSON      SUNNY     73  47  39 NE7       29.93S
MINOT          SUNNY     72  42  34 CALM      29.91F
BISMARCK       SUNNY     74  45  35 CALM      29.92F

SOUTHERN SASKATCHEWAN


CITY           SKY/WX    TMP DP  RH WIND       PRES   REMARKS
REGINA         MOSUNNY   73  41  31 W8        29.88F
MOOSE JAW      MOSUNNY   75  45  33 W6        29.89F
ESTEVAN        MOSUNNY   73  43  33 SW3       29.91F
SWIFT CURRENT  SUNNY     75  39  27 W8        29.87F



USA.gov is the U.S. government's official web portal to all federal, state and local government web resources and services.